FDX8483 KCOS-KOMA

Flight info

Callsign FDX8483
Flight time 1h 18m
Altitude 35000
Route BRK JEWLS GLD HCT OBH MZEEE AANDY2
Aircraft B77L/H-SDE1E2E3FGHIJ2J3J4J5M1RWXY/LB1D1

Departure

Time 2026-05-07 17:11
Airport City of Colorado Springs Municipal Airport (KCOS)

Arrival

Time 2026-05-07 18:29
Airport Eppley Airfield (KOMA)
Time Latitude Longitude Altitude Speed Heading
2026-05-07 16:55 38.81054 -104.71884 6198 ft 0 kts 268°
2026-05-07 17:02 38.81054 -104.71873 6198 ft 2 kts 268°
2026-05-07 17:03 38.81056 -104.71851 6198 ft 3 kts 257°
2026-05-07 17:03 38.81064 -104.71827 6198 ft 3 kts 234°
2026-05-07 17:03 38.81078 -104.71809 6198 ft 3 kts 211°
2026-05-07 17:03 38.81097 -104.71800 6198 ft 3 kts 191°
2026-05-07 17:04 38.81112 -104.71798 6198 ft 0 kts 178°
2026-05-07 17:05 38.81110 -104.71798 6198 ft 0 kts 178°
2026-05-07 17:05 38.81035 -104.71808 6198 ft 22 kts 182°
2026-05-07 17:05 38.80854 -104.71811 6198 ft 26 kts 179°
2026-05-07 17:05 38.80689 -104.71815 6198 ft 21 kts 180°
2026-05-07 17:06 38.80583 -104.71789 6198 ft 11 kts 115°
2026-05-07 17:06 38.80555 -104.71690 6198 ft 9 kts 149°
2026-05-07 17:06 38.80462 -104.71682 6198 ft 18 kts 187°
2026-05-07 17:06 38.80343 -104.71695 6198 ft 18 kts 178°
2026-05-07 17:07 38.80216 -104.71684 6198 ft 17 kts 177°
2026-05-07 17:07 38.80110 -104.71683 6198 ft 14 kts 180°
2026-05-07 17:07 38.80007 -104.71683 6198 ft 14 kts 180°
2026-05-07 17:07 38.79921 -104.71683 6198 ft 13 kts 180°
2026-05-07 17:08 38.79813 -104.71684 6198 ft 15 kts 180°
2026-05-07 17:08 38.79715 -104.71684 6198 ft 15 kts 180°
2026-05-07 17:08 38.79619 -104.71684 6198 ft 13 kts 180°
2026-05-07 17:08 38.79528 -104.71685 6198 ft 15 kts 181°
2026-05-07 17:09 38.79435 -104.71686 6198 ft 12 kts 177°
2026-05-07 17:09 38.79408 -104.71645 6198 ft 9 kts 90°
2026-05-07 17:09 38.79450 -104.71597 6198 ft 8 kts
2026-05-07 17:09 38.79462 -104.71596 6198 ft 0 kts
2026-05-07 17:10 38.79585 -104.71594 6198 ft 53 kts
2026-05-07 17:10 38.80218 -104.71591 6198 ft 129 kts
2026-05-07 17:10 38.81356 -104.71586 6213 ft 199 kts
2026-05-07 17:11 38.82811 -104.71538 7062 ft 208 kts
2026-05-07 17:11 38.84196 -104.71430 8276 ft 188 kts
2026-05-07 17:11 38.85463 -104.71343 9231 ft 177 kts
2026-05-07 17:11 38.86710 -104.71279 9793 ft 184 kts
2026-05-07 17:12 38.88061 -104.71172 10098 ft 208 kts
2026-05-07 17:12 38.89541 -104.70485 10051 ft 248 kts 28°
2026-05-07 17:12 38.90928 -104.68976 10157 ft 274 kts 45°
2026-05-07 17:12 38.92148 -104.67014 10437 ft 288 kts 50°
2026-05-07 17:13 38.93280 -104.64829 10763 ft 303 kts 62°
2026-05-07 17:13 38.93763 -104.62165 11125 ft 315 kts 87°
2026-05-07 17:13 38.93367 -104.59425 11523 ft 313 kts 111°
2026-05-07 17:13 38.92275 -104.57054 11892 ft 316 kts 127°
2026-05-07 17:14 38.90878 -104.54858 12182 ft 321 kts 129°
2026-05-07 17:14 38.89463 -104.52585 12707 ft 333 kts 128°
2026-05-07 17:14 38.88011 -104.50160 13212 ft 352 kts 127°
2026-05-07 17:14 38.86541 -104.47540 13753 ft 370 kts 123°
2026-05-07 17:15 38.85393 -104.44508 14254 ft 387 kts 106°
2026-05-07 17:15 38.85021 -104.41043 14765 ft 400 kts 88°
2026-05-07 17:15 38.85365 -104.37477 15273 ft 406 kts 74°
2026-05-07 17:15 38.86149 -104.33958 15762 ft 415 kts 71°
2026-05-07 17:16 38.86915 -104.30339 16263 ft 425 kts 72°
2026-05-07 17:16 38.87679 -104.26654 16763 ft 429 kts 72°
2026-05-07 17:16 38.88450 -104.22942 17266 ft 432 kts 72°
2026-05-07 17:16 38.89231 -104.19202 17766 ft 435 kts 72°
2026-05-07 17:17 38.90010 -104.15475 18258 ft 440 kts 72°
2026-05-07 17:17 38.90806 -104.11655 18757 ft 444 kts 72°
2026-05-07 17:17 38.91613 -104.07808 19253 ft 448 kts 72°
2026-05-07 17:17 38.92424 -104.03933 19756 ft 450 kts 72°
2026-05-07 17:18 38.93236 -104.00046 20255 ft 452 kts 72°
2026-05-07 17:18 38.94054 -103.96127 20750 ft 456 kts 72°
2026-05-07 17:18 38.94878 -103.92166 21247 ft 461 kts 72°
2026-05-07 17:18 38.95708 -103.88169 21741 ft 465 kts 72°
2026-05-07 17:19 38.96545 -103.84135 22242 ft 469 kts 72°
2026-05-07 17:19 38.97387 -103.80066 22742 ft 473 kts 72°
2026-05-07 17:19 38.98235 -103.75956 23240 ft 477 kts 72°
2026-05-07 17:19 38.99087 -103.71823 23737 ft 481 kts 72°
2026-05-07 17:20 38.99944 -103.67655 24238 ft 484 kts 72°
2026-05-07 17:20 39.00807 -103.63452 24738 ft 488 kts 72°
2026-05-07 17:20 39.01678 -103.59207 25238 ft 492 kts 72°
2026-05-07 17:20 39.02542 -103.54980 25728 ft 497 kts 72°
2026-05-07 17:21 39.03423 -103.50666 26226 ft 501 kts 72°
2026-05-07 17:21 39.04311 -103.46307 26726 ft 506 kts 72°
2026-05-07 17:21 39.05204 -103.41913 27226 ft 510 kts 72°
2026-05-07 17:21 39.06103 -103.37480 27725 ft 514 kts 72°
2026-05-07 17:22 39.07008 -103.33009 28222 ft 518 kts 72°
2026-05-07 17:22 39.07919 -103.28500 28720 ft 523 kts 72°
2026-05-07 17:22 39.08835 -103.23952 29218 ft 527 kts 72°
2026-05-07 17:22 39.09758 -103.19362 29717 ft 531 kts 72°
2026-05-07 17:23 39.10683 -103.14751 30219 ft 532 kts 72°
2026-05-07 17:23 39.11607 -103.10136 30719 ft 531 kts 72°
2026-05-07 17:23 39.12527 -103.05532 31219 ft 530 kts 72°
2026-05-07 17:23 39.13442 -103.00942 31718 ft 528 kts 72°
2026-05-07 17:24 39.14343 -102.96411 32212 ft 527 kts 72°
2026-05-07 17:24 39.15249 -102.91845 32711 ft 526 kts 72°
2026-05-07 17:24 39.16154 -102.87278 33212 ft 525 kts 72°
2026-05-07 17:24 39.17052 -102.82729 33712 ft 523 kts 72°
2026-05-07 17:25 39.17946 -102.78197 34212 ft 522 kts 72°
2026-05-07 17:25 39.18839 -102.73659 34698 ft 522 kts 72°
2026-05-07 17:25 39.19732 -102.69107 34906 ft 525 kts 72°
2026-05-07 17:25 39.20624 -102.64548 34900 ft 525 kts 72°
2026-05-07 17:26 39.22406 -102.55422 34893 ft 525 kts 72°
2026-05-07 17:26 39.24179 -102.46290 34891 ft 525 kts 72°
2026-05-07 17:27 39.25652 -102.38675 34889 ft 525 kts 72°
2026-05-07 17:27 39.27417 -102.29514 34890 ft 526 kts 72°
2026-05-07 17:28 39.29173 -102.20353 34889 ft 526 kts 72°
2026-05-07 17:28 39.30926 -102.11167 34885 ft 527 kts 73°
2026-05-07 17:29 39.32687 -102.02045 34876 ft 527 kts 72°
2026-05-07 17:29 39.34418 -101.92826 34865 ft 529 kts 73°
2026-05-07 17:30 39.36142 -101.83551 34856 ft 531 kts 73°
2026-05-07 17:30 39.37943 -101.74310 34845 ft 527 kts 67°
2026-05-07 17:31 39.39483 -101.70077 34847 ft 516 kts 53°
2026-05-07 17:31 39.41712 -101.66495 34848 ft 505 kts 38°
2026-05-07 17:31 39.44480 -101.63806 34852 ft 492 kts 24°
2026-05-07 17:31 39.47489 -101.61885 34852 ft 487 kts 17°
2026-05-07 17:32 39.53687 -101.58305 34850 ft 488 kts 19°
2026-05-07 17:32 39.59761 -101.54327 34845 ft 490 kts 21°
2026-05-07 17:33 39.65738 -101.50047 34845 ft 491 kts 22°
2026-05-07 17:33 39.71713 -101.45756 34846 ft 490 kts 22°
2026-05-07 17:34 39.77702 -101.41485 34849 ft 490 kts 22°
2026-05-07 17:34 39.83683 -101.37199 34850 ft 490 kts 22°
2026-05-07 17:35 39.89618 -101.32933 34850 ft 490 kts 22°
2026-05-07 17:35 39.95588 -101.28633 34851 ft 491 kts 22°
2026-05-07 17:36 40.01562 -101.24320 34850 ft 490 kts 22°
2026-05-07 17:36 40.07517 -101.20011 34845 ft 488 kts 22°
2026-05-07 17:37 40.13466 -101.15699 34839 ft 489 kts 22°
2026-05-07 17:37 40.19427 -101.11386 34832 ft 489 kts 22°
2026-05-07 17:38 40.25380 -101.07067 34833 ft 489 kts 22°
2026-05-07 17:38 40.31332 -101.02716 34823 ft 489 kts 22°
2026-05-07 17:39 40.37240 -100.98387 34811 ft 488 kts 22°
2026-05-07 17:39 40.43126 -100.93887 34807 ft 495 kts 29°
2026-05-07 17:40 40.45783 -100.90913 34807 ft 507 kts 39°
2026-05-07 17:40 40.48026 -100.87278 34805 ft 517 kts 51°
2026-05-07 17:40 40.51114 -100.78727 34801 ft 525 kts 63°
2026-05-07 17:41 40.53925 -100.69870 34800 ft 524 kts 62°
2026-05-07 17:41 40.56970 -100.61176 34797 ft 523 kts 59°
2026-05-07 17:42 40.60145 -100.52550 34784 ft 523 kts 59°
2026-05-07 17:42 40.63363 -100.43969 34781 ft 523 kts 59°
2026-05-07 17:43 40.66568 -100.35355 34781 ft 524 kts 59°
2026-05-07 17:43 40.69750 -100.26714 34782 ft 524 kts 59°
2026-05-07 17:44 40.72901 -100.18114 34783 ft 523 kts 59°
2026-05-07 17:44 40.76059 -100.09465 34782 ft 523 kts 59°
2026-05-07 17:45 40.79211 -100.00802 34785 ft 523 kts 59°
2026-05-07 17:45 40.82362 -99.92119 34787 ft 525 kts 60°
2026-05-07 17:46 40.85511 -99.83411 34789 ft 524 kts 60°
2026-05-07 17:46 40.88643 -99.74727 34788 ft 523 kts 60°
2026-05-07 17:47 40.91770 -99.66029 34787 ft 523 kts 60°
2026-05-07 17:47 40.94864 -99.57395 34783 ft 523 kts 60°
2026-05-07 17:48 40.97974 -99.48694 34779 ft 523 kts 60°
2026-05-07 17:48 41.01075 -99.39988 34775 ft 523 kts 60°
2026-05-07 17:49 41.04173 -99.31265 34771 ft 522 kts 60°
2026-05-07 17:49 41.07253 -99.22566 34769 ft 522 kts 60°
2026-05-07 17:50 41.10329 -99.13853 34764 ft 522 kts 60°
2026-05-07 17:50 41.13400 -99.05126 34763 ft 522 kts 60°
2026-05-07 17:51 41.16467 -98.96383 34762 ft 522 kts 60°
2026-05-07 17:51 41.19509 -98.87687 34761 ft 523 kts 60°
2026-05-07 17:52 41.22566 -98.78920 34760 ft 523 kts 60°
2026-05-07 17:52 41.25643 -98.70143 34761 ft 523 kts 60°
2026-05-07 17:53 41.28700 -98.61360 34760 ft 523 kts 61°
2026-05-07 17:53 41.31706 -98.52610 34760 ft 523 kts 61°
2026-05-07 17:54 41.34724 -98.43800 34760 ft 523 kts 61°
2026-05-07 17:54 41.37810 -98.35045 34758 ft 520 kts 57°
2026-05-07 17:55 41.41554 -98.26890 34565 ft 514 kts 51°
2026-05-07 17:55 41.43561 -98.22954 34152 ft 514 kts 50°
2026-05-07 17:55 41.45557 -98.19005 33708 ft 514 kts 51°
2026-05-07 17:56 41.47537 -98.15027 33331 ft 513 kts 51°
2026-05-07 17:56 41.49493 -98.11051 32956 ft 513 kts 51°
2026-05-07 17:56 41.51440 -98.07067 32581 ft 513 kts 51°
2026-05-07 17:56 41.53385 -98.03072 32207 ft 513 kts 51°
2026-05-07 17:57 41.55323 -97.99080 31832 ft 513 kts 51°
2026-05-07 17:57 41.56609 -97.96431 31582 ft 513 kts 51°
2026-05-07 17:57 41.59236 -97.91109 31080 ft 512 kts 51°
2026-05-07 17:57 41.61165 -97.87187 30709 ft 509 kts 51°
2026-05-07 17:58 41.63095 -97.83238 30335 ft 506 kts 51°
2026-05-07 17:58 41.65007 -97.79307 29961 ft 502 kts 51°
2026-05-07 17:58 41.66902 -97.75400 29589 ft 498 kts 51°
2026-05-07 17:58 41.68781 -97.71517 29215 ft 495 kts 51°
2026-05-07 17:59 41.70647 -97.67654 28840 ft 492 kts 51°
2026-05-07 17:59 41.72500 -97.63811 28465 ft 490 kts 51°
2026-05-07 17:59 41.74345 -97.59981 28088 ft 487 kts 51°
2026-05-07 17:59 41.76171 -97.56183 27712 ft 484 kts 51°
2026-05-07 18:00 41.77966 -97.52446 27341 ft 482 kts 51°
2026-05-07 18:00 41.79770 -97.48685 26967 ft 479 kts 51°
2026-05-07 18:00 41.81563 -97.44943 26593 ft 476 kts 51°
2026-05-07 18:00 41.83347 -97.41216 26218 ft 474 kts 51°
2026-05-07 18:01 41.85124 -97.37496 25841 ft 472 kts 50°
2026-05-07 18:01 41.86893 -97.33792 25464 ft 469 kts 50°
2026-05-07 18:01 41.88643 -97.30121 25055 ft 467 kts 50°
2026-05-07 18:01 41.90390 -97.26451 24605 ft 464 kts 50°
2026-05-07 18:02 41.93842 -97.19189 23708 ft 458 kts 50°
2026-05-07 18:02 41.95548 -97.15594 23259 ft 454 kts 50°
2026-05-07 18:02 41.97214 -97.12078 22814 ft 451 kts 50°
2026-05-07 18:03 41.98901 -97.08515 22363 ft 449 kts 50°
2026-05-07 18:03 42.00570 -97.04986 21913 ft 446 kts 50°
2026-05-07 18:03 42.02223 -97.01484 21466 ft 442 kts 50°
2026-05-07 18:03 42.03866 -96.98000 21017 ft 439 kts 50°
2026-05-07 18:04 42.05497 -96.94537 20566 ft 437 kts 50°
2026-05-07 18:04 42.07115 -96.91100 20116 ft 433 kts 50°
2026-05-07 18:04 42.08718 -96.87689 19667 ft 428 kts 50°
2026-05-07 18:04 42.10279 -96.84364 19226 ft 424 kts 50°
2026-05-07 18:05 42.11851 -96.81014 18776 ft 421 kts 50°
2026-05-07 18:05 42.13408 -96.77690 18325 ft 418 kts 51°
2026-05-07 18:05 42.14956 -96.74383 17877 ft 416 kts 51°
2026-05-07 18:05 42.16492 -96.71099 17427 ft 413 kts 51°
2026-05-07 18:06 42.18025 -96.67833 16975 ft 410 kts 51°
2026-05-07 18:06 42.19558 -96.64602 16525 ft 407 kts 51°
2026-05-07 18:06 42.21064 -96.61389 16077 ft 403 kts 51°
2026-05-07 18:06 42.22547 -96.58201 15628 ft 399 kts 52°
2026-05-07 18:07 42.24013 -96.55037 15178 ft 395 kts 52°
2026-05-07 18:07 42.25455 -96.51919 14725 ft 383 kts 52°
2026-05-07 18:07 42.26836 -96.48934 14291 ft 366 kts 53°
2026-05-07 18:07 42.28133 -96.46121 13897 ft 350 kts 53°
2026-05-07 18:08 42.29401 -96.43376 13491 ft 337 kts 53°
2026-05-07 18:08 42.30616 -96.40733 13089 ft 325 kts 53°
2026-05-07 18:08 42.31655 -96.38062 12684 ft 319 kts 66°
2026-05-07 18:08 42.31991 -96.35148 12367 ft 311 kts 91°
2026-05-07 18:09 42.31443 -96.32409 12130 ft 298 kts 118°
2026-05-07 18:09 42.30153 -96.30301 11936 ft 290 kts 144°
2026-05-07 18:09 42.28442 -96.28864 11745 ft 292 kts 159°
2026-05-07 18:09 42.26532 -96.27836 11552 ft 298 kts 166°
2026-05-07 18:10 42.24536 -96.26963 11352 ft 304 kts 167°
2026-05-07 18:10 42.22534 -96.26088 11157 ft 309 kts 166°
2026-05-07 18:10 42.20464 -96.25123 11030 ft 310 kts 165°
2026-05-07 18:10 42.18448 -96.24124 10994 ft 307 kts 164°
2026-05-07 18:11 42.16489 -96.23121 10994 ft 304 kts 164°
2026-05-07 18:11 42.15156 -96.22441 10991 ft 305 kts 164°
2026-05-07 18:11 42.12483 -96.21084 10989 ft 314 kts 164°
2026-05-07 18:11 42.10428 -96.20043 10988 ft 316 kts 164°
2026-05-07 18:12 42.08370 -96.19000 10985 ft 316 kts 164°
2026-05-07 18:12 42.06310 -96.17967 10985 ft 315 kts 165°
2026-05-07 18:12 42.04243 -96.16975 10985 ft 315 kts 165°
2026-05-07 18:12 42.02176 -96.15996 10985 ft 315 kts 165°
2026-05-07 18:13 42.00110 -96.15018 10983 ft 314 kts 165°
2026-05-07 18:13 41.98043 -96.14039 10982 ft 315 kts 165°
2026-05-07 18:13 41.95976 -96.13061 10983 ft 314 kts 165°
2026-05-07 18:13 41.93939 -96.12096 10982 ft 314 kts 165°
2026-05-07 18:14 41.91878 -96.11120 10981 ft 314 kts 165°
2026-05-07 18:14 41.89817 -96.10145 10976 ft 314 kts 165°
2026-05-07 18:14 41.87736 -96.09161 10661 ft 319 kts 165°
2026-05-07 18:14 41.85643 -96.08173 10296 ft 319 kts 165°
2026-05-07 18:15 41.83544 -96.07182 9919 ft 319 kts 165°
2026-05-07 18:15 41.81455 -96.06180 9538 ft 318 kts 163°
2026-05-07 18:15 41.79431 -96.05131 9162 ft 305 kts 162°
2026-05-07 18:15 41.77493 -96.04088 8808 ft 294 kts 162°
2026-05-07 18:16 41.75642 -96.03090 8565 ft 279 kts 162°
2026-05-07 18:16 41.73874 -96.02151 8362 ft 271 kts 162°
2026-05-07 18:16 41.72123 -96.01229 8169 ft 270 kts 162°
2026-05-07 18:16 41.70400 -96.00321 7972 ft 269 kts 162°
2026-05-07 18:17 41.68663 -95.99407 7768 ft 267 kts 163°
2026-05-07 18:17 41.66938 -95.98502 7569 ft 266 kts 162°
2026-05-07 18:17 41.65214 -95.97595 7366 ft 265 kts 162°
2026-05-07 18:17 41.63515 -95.96618 7166 ft 266 kts 159°
2026-05-07 18:18 41.61851 -95.95541 6963 ft 265 kts 157°
2026-05-07 18:18 41.60766 -95.94802 6827 ft 263 kts 156°
2026-05-07 18:18 41.59151 -95.93693 6637 ft 259 kts 155°
2026-05-07 18:18 41.57554 -95.92609 6441 ft 256 kts 155°
2026-05-07 18:19 41.55973 -95.91549 6237 ft 252 kts 155°
2026-05-07 18:19 41.54411 -95.90510 6037 ft 249 kts 155°
2026-05-07 18:19 41.52869 -95.89489 5836 ft 246 kts 155°
2026-05-07 18:19 41.50853 -95.88158 5569 ft 242 kts 156°
2026-05-07 18:20 41.49839 -95.87489 5433 ft 240 kts 156°
2026-05-07 18:20 41.48374 -95.86523 5233 ft 236 kts 156°
2026-05-07 18:20 41.46906 -95.85556 5034 ft 233 kts 156°
2026-05-07 18:20 41.45468 -95.84611 4975 ft 228 kts 156°
2026-05-07 18:21 41.44044 -95.83673 4959 ft 228 kts 156°
2026-05-07 18:21 41.42619 -95.82746 4958 ft 227 kts 158°
2026-05-07 18:21 41.41146 -95.82003 4969 ft 226 kts 164°
2026-05-07 18:21 41.39635 -95.81412 4967 ft 227 kts 167°
2026-05-07 18:22 41.38112 -95.80870 4963 ft 226 kts 167°
2026-05-07 18:22 41.37110 -95.80505 4969 ft 226 kts 167°
2026-05-07 18:22 41.35072 -95.79759 4967 ft 226 kts 167°
2026-05-07 18:22 41.33558 -95.79196 4968 ft 226 kts 166°
2026-05-07 18:23 41.32091 -95.78415 4967 ft 228 kts 156°
2026-05-07 18:23 41.30707 -95.77386 4968 ft 228 kts 153°
2026-05-07 18:23 41.29356 -95.76324 4949 ft 228 kts 152°
2026-05-07 18:23 41.27994 -95.75249 4953 ft 228 kts 152°
2026-05-07 18:24 41.26634 -95.74172 4971 ft 226 kts 152°
2026-05-07 18:24 41.25280 -95.73097 4979 ft 227 kts 152°
2026-05-07 18:24 41.23909 -95.72011 4964 ft 230 kts 152°
2026-05-07 18:24 41.22527 -95.70917 4962 ft 230 kts 152°
2026-05-07 18:25 41.21133 -95.69880 4962 ft 228 kts 159°
2026-05-07 18:25 41.19625 -95.69508 4962 ft 218 kts 187°
2026-05-07 18:25 41.18277 -95.70266 4963 ft 211 kts 220°
2026-05-07 18:25 41.17527 -95.71871 4964 ft 205 kts 253°
2026-05-07 18:26 41.17626 -95.73708 4964 ft 205 kts 287°
2026-05-07 18:26 41.18359 -95.75308 4963 ft 201 kts 302°
2026-05-07 18:26 41.19085 -95.76823 4928 ft 191 kts 297°
2026-05-07 18:26 41.19734 -95.78342 4746 ft 188 kts 297°
2026-05-07 18:27 41.20405 -95.79891 4387 ft 197 kts 299°
2026-05-07 18:27 41.21285 -95.81271 4002 ft 198 kts 315°
2026-05-07 18:27 41.22420 -95.82368 3591 ft 205 kts 322°
2026-05-07 18:27 41.23601 -95.83443 3193 ft 211 kts 323°
2026-05-07 18:28 41.24813 -95.84548 2796 ft 210 kts 323°
2026-05-07 18:28 41.26012 -95.85567 2428 ft 200 kts 325°
2026-05-07 18:28 41.27135 -95.86526 1921 ft 185 kts 319°
2026-05-07 18:28 41.28121 -95.87520 1411 ft 171 kts 323°
2026-05-07 18:29 41.29031 -95.88372 1077 ft 151 kts 323°
2026-05-07 18:29 41.29806 -95.89115 999 ft 121 kts 324°
2026-05-07 18:29 41.30365 -95.89644 998 ft 61 kts 324°
2026-05-07 18:29 41.30534 -95.89807 998 ft 27 kts 325°
2026-05-07 18:30 41.30677 -95.89943 998 ft 23 kts 324°
2026-05-07 18:30 41.30762 -95.90031 998 ft 11 kts 305°
2026-05-07 18:30 41.30760 -95.90115 998 ft 8 kts 240°
2026-05-07 18:30 41.30733 -95.90170 998 ft 6 kts 235°
2026-05-07 18:31 41.30715 -95.90213 998 ft 6 kts 256°
2026-05-07 18:31 41.30735 -95.90265 998 ft 10 kts 314°
2026-05-07 18:31 41.30786 -95.90320 998 ft 9 kts 323°
2026-05-07 18:31 41.30828 -95.90362 998 ft 9 kts 324°
2026-05-07 18:32 41.30885 -95.90417 998 ft 10 kts 324°
2026-05-07 18:32 41.30932 -95.90462 998 ft 7 kts 324°
2026-05-07 18:32 41.30976 -95.90504 998 ft 11 kts 324°
2026-05-07 18:32 41.31038 -95.90563 998 ft 7 kts 324°
2026-05-07 18:33 41.31071 -95.90595 998 ft 5 kts 324°
2026-05-07 18:33 41.31107 -95.90629 998 ft 12 kts 323°
2026-05-07 18:33 41.31177 -95.90696 998 ft 12 kts 324°
2026-05-07 18:33 41.31238 -95.90756 998 ft 11 kts 324°
2026-05-07 18:34 41.31274 -95.90807 998 ft 5 kts 275°
2026-05-07 18:34 41.31249 -95.90885 998 ft 11 kts 239°
2026-05-07 18:34 41.31213 -95.90964 998 ft 9 kts 238°
2026-05-07 18:34 41.31196 -95.91002 998 ft 0 kts 238°
2026-05-07 18:35 41.31191 -95.91013 998 ft 6 kts 237°
2026-05-07 18:36 41.31165 -95.91047 998 ft 2 kts 185°
2026-05-07 18:36 41.31139 -95.91027 998 ft 5 kts 145°
2026-05-07 18:36 41.31112 -95.91002 998 ft 4 kts 144°
2026-05-07 18:36 41.31105 -95.90995 998 ft 0 kts 144°